User: anonymous   Login
Location: Unspecified
(0.0000°N, 0.0000°E)
Time: 00:48:27
(UTC+00:00)
Language:

USA 184 - Orbit

View from above orbital plane
View from above orbital plane
View from above satellite
View from above satellite

Ground track
Ground track

The orbit data is extracted from the following two-line orbital elements,

1 29249U 06027A   18325.48292180 0.00000000  00000-0  00000-0 0    07
2 29249  62.8475 217.8886 6815009 271.2069  17.9973  2.00615000    06
Epoch (UTC): 21 November 2018 11:35:24
Eccentricity: 0.6815009
inclination: 62.8475°
perigee height: 2080 km
apogee height: 38275 km
right ascension of ascending node: 217.8886°
argument of perigee: 271.2069°
revolutions per day: 2.00615000
mean anomaly at epoch: 17.9973°
orbit number at epoch: 0

The dashed part of the orbit path shows where the satellite is in the earth's shadow,  

DLR